Location: �chenoz-la-M�line
(47.6009°N, 6.1354°E)
Time: 04:44:02
(UTC+00:00)

Envisat - Pass Details

Date: 27 January 2021
Orbit: 764 x 766 km, 98.1° (Epoch: 27 February)

Event Time Altitude Azimuth Distance (km) Brightness Sun altitude
Rises 04:58:49 0° 18° (NNE) 3,244 6.4 -21.7°
Reaches altitude 10° 05:01:13 10° 24° (NNE) 2,313 5.7 -21.3°
Maximum altitude 05:06:08 48° 99° (E) 1,002 4.0 -20.5°
Drops below altitude 10° 05:11:01 10° 173° (S) 2,295 5.6 -19.7°
Sets 05:13:23 0° 179° (S) 3,216 6.3 -19.3°
